Theta_e
299 299 299 299 299 299 301 310 316 315 317 317 316 318 320 320 322 320 310 307 308 309 311 312 310 309 310 307 313 320 317 311 310 310 315 314 315 316 314 312 312 311 312 314 313 321 324
302 299 299 300 299 299 299 299 301 309 313 316 318 317 313 318 319 321 314 308 308 309 311 312 310 309 309 307 319 320 316 312 312 314 314 314 316 316 315 314 312 314 314 315 317 323 324
302 302 301 299 299 299 299 299 299 299 302 307 314 317 317 316 315 320 318 309 308 309 311 312 310 308 308 310 316 321 319 314 312 313 314 314 315 316 316 315 316 316 315 317 320 322 323
306 305 305 305 300 299 299 299 299 299 299 299 305 314 316 315 316 318 321 311 308 308 311 312 310 308 308 308 312 321 319 318 317 314 313 315 316 316 316 316 316 314 314 320 319 320 322
306 306 306 305 307 304 300 299 299 299 299 299 299 308 314 315 317 315 320 313 308 309 311 312 310 308 309 309 310 317 317 317 318 319 317 316 317 316 316 314 311 311 314 318 321 319 321
305 307 305 306 306 306 307 303 300 299 299 299 298 303 311 316 318 317 317 315 308 310 312 313 314 310 309 313 315 316 317 318 318 318 318 317 316 312 311 311 315 316 316 317 320 318 320
300 304 306 306 305 305 306 306 305 301 299 299 298 301 309 309 318 317 315 311 311 315 317 318 309 309 309 312 316 317 317 317 317 317 316 315 312 313 312 313 315 316 315 316 317 315 319
299 300 303 306 306 304 305 306 306 305 302 299 299 299 308 309 318 317 318 309 313 314 314 313 315 316 318 318 317 317 317 317 317 315 315 314 314 312 313 314 316 316 317 316 316 314 315
299 298 299 302 304 306 304 305 306 306 305 303 299 298 305 312 316 317 316 311 316 320 314 313 314 315 315 315 316 316 317 318 315 315 315 315 315 315 316 316 317 317 318 317 317 314 314
300 299 297 299 300 304 305 304 304 305 305 306 301 298 305 314 316 314 314 317 319 320 312 314 317 316 316 316 316 316 317 317 314 314 314 314 314 316 316 316 316 318 316 316 316 314 316
300 300 300 297 299 301 304 305 303 305 305 303 303 300 302 314 315 313 317 318 312 315 310 313 320 318 317 316 316 317 318 316 313 314 314 314 318 317 317 317 317 317 316 316 317 316 316
302 301 301 299 298 299 301 305 304 303 304 305 304 302 300 312 314 312 319 315 318 316 311 312 318 316 314 315 316 315 317 317 316 313 315 314 316 316 316 316 317 316 317 315 314 315 316
302 302 301 301 299 297 299 302 305 303 303 303 305 305 302 311 312 312 316 315 323 317 312 315 319 313 313 313 314 315 313 314 313 314 315 316 316 317 318 318 316 315 316 317 317 317 317
302 302 302 302 301 299 297 300 303 304 302 303 303 305 303 311 313 314 316 317 320 316 315 317 316 313 313 313 314 315 313 312 312 313 312 316 316 317 318 317 316 316 315 316 319 317 317
302 303 302 303 302 300 298 298 302 304 302 302 302 304 303 309 312 313 316 317 319 318 318 317 315 315 315 314 314 315 313 312 311 311 314 314 315 317 318 318 316 316 316 313 316 315 318
302 303 303 303 303 302 299 296 301 304 302 301 301 303 303 308 313 314 315 316 316 317 319 320 317 316 315 315 315 314 312 312 313 311 312 314 316 318 318 318 318 315 314 316 313 320 320
303 303 304 303 303 303 300 298 298 302 302 301 302 303 303 308 311 313 314 315 314 316 317 320 321 320 315 315 314 313 313 314 312 311 312 314 314 314 319 317 317 316 315 313 314 313 316
302 303 303 303 303 303 301 299 297 300 302 301 304 303 305 307 312 312 312 313 313 315 315 318 318 321 321 314 314 314 314 314 314 313 314 315 313 312 316 316 316 315 315 313 314 315 311
300 300 302 303 303 302 302 300 297 299 302 301 303 305 306 309 310 312 311 312 313 314 314 317 318 319 317 316 315 314 313 314 314 313 314 315 313 312 313 314 316 317 315 314 311 309 314
297 297 299 302 304 302 302 300 298 298 301 301 303 304 308 308 308 309 311 312 313 314 314 315 316 318 319 318 314 314 314 319 316 314 315 315 313 312 314 313 314 317 315 314 314 312 313
298 298 298 300 305 303 302 300 298 300 301 301 302 304 308 308 308 309 310 311 312 314 314 314 314 317 318 320 317 318 319 319 317 317 315 314 314 313 312 314 316 316 317 314 314 314 315
300 299 299 299 304 303 301 300 300 300 300 301 302 305 308 307 307 309 311 311 312 313 315 315 314 315 316 318 316 317 319 318 318 315 315 313 315 313 317 316 316 317 315 314 313 314 313
300 300 300 299 304 303 301 300 300 300 299 301 301 304 308 307 308 308 310 311 312 312 313 314 313 313 315 315 315 315 316 316 316 316 314 312 311 312 316 312 314 313 313 314 314 313 314
301 300 300 299 304 302 300 300 301 300 299 300 300 303 307 306 309 308 308 310 312 312 313 313 314 313 314 315 318 317 316 317 317 316 313 309 310 307 309 309 313 314 312 313 312 311 311
302 300 301 300 302 301 300 299 300 299 299 299 300 302 306 306 308 310 309 309 310 311 312 313 313 313 313 317 316 318 312 316 315 313 314 311 308 310 312 312 312 315 312 312 312 312 309
300 302 300 302 302 301 300 299 299 299 299 298 299 301 304 308 308 309 310 309 309 309 310 311 311 311 312 313 310 317 319 317 316 316 311 310 307 311 307 312 313 312 313 311 310 311 309
302 301 301 302 301 300 300 299 299 298 298 298 299 302 303 304 309 310 310 310 309 309 309 310 311 314 314 304 310 311 315 315 316 317 314 310 306 310 303 308 311 310 311 311 312 312 311
299 302 302 301 300 300 299 298 298 298 298 297 298 299 302 304 305 309 311 311 310 310 309 311 313 313 308 312 312 311 308 311 311 313 314 316 313 308 305 307 317 310 311 311 310 310 312
302 300 300 300 300 299 298 298 298 298 298 298 297 297 303 303 307 308 311 312 310 311 311 313 313 315 315 314 309 306 310 303 310 313 312 316 313 312 312 313 311 311 311 312 312 312 312
Wind_Speed
28 26 26 25 25 25 26 29 31 28 25 23 24 24 23 21 20 19 18 17 17 18 19 20 20 17 15 6 3 2 4 3 5 8 9 5 3 1 1 3 2 3 5 8 11 5 3
30 31 30 27 26 25 25 24 26 28 28 26 25 24 23 22 21 20 19 17 18 19 19 19 19 16 12 6 5 3 0 2 5 10 8 4 2 5 5 5 4 6 9 8 4 9 8
33 32 33 32 31 28 26 26 24 22 24 26 26 24 23 22 22 20 19 18 18 19 19 19 18 15 16 17 8 8 4 3 4 6 4 4 5 6 8 4 5 7 3 5 3 7 4
33 33 32 31 34 32 30 28 26 23 21 21 24 25 23 21 21 20 18 18 19 19 20 18 17 14 11 6 15 13 8 4 2 4 5 5 5 12 4 7 6 5 2 3 2 4 4
35 36 34 33 30 31 32 31 29 26 24 20 20 23 22 19 21 18 17 19 19 21 20 18 14 8 10 6 13 13 12 7 4 5 6 6 6 3 4 3 4 6 1 1 1 8 3
35 34 38 36 33 31 28 30 30 28 25 22 21 20 20 17 19 18 17 19 19 19 17 12 13 6 10 3 6 9 10 11 9 3 5 5 0 2 3 4 2 3 1 1 2 4 2
42 39 34 39 39 33 32 30 28 28 26 23 22 20 19 18 17 16 15 15 10 8 5 9 2 6 9 3 7 9 10 10 8 2 2 2 4 5 8 6 2 1 2 1 2 3 5
40 42 43 38 39 38 35 31 29 27 26 25 24 22 20 16 16 17 13 10 7 8 12 18 19 28 28 25 7 9 12 8 7 5 3 5 5 8 5 3 4 5 2 2 2 3 1
39 40 42 48 41 38 37 35 31 26 25 25 25 23 20 13 14 17 12 11 10 11 7 13 18 18 25 18 10 11 17 12 4 6 4 5 5 1 5 4 4 3 1 2 3 2 4
50 43 41 41 50 43 39 36 35 29 25 23 24 24 18 11 14 16 13 6 11 5 4 6 6 8 15 11 5 17 17 12 2 8 8 5 4 5 5 5 5 1 3 0 4 3 2
52 49 44 41 42 50 42 41 38 35 31 29 26 23 20 16 8 4 4 2 6 6 4 3 4 4 16 18 8 15 15 10 8 6 6 7 3 4 3 6 4 4 5 2 3 3 4
55 51 49 44 42 46 50 42 41 37 32 25 24 23 20 22 24 13 9 3 2 4 7 5 7 6 7 7 4 8 14 9 6 5 1 6 1 3 5 3 3 4 3 5 4 3 2
56 54 51 48 43 45 51 47 41 38 35 29 23 22 28 25 24 19 13 7 2 5 4 4 5 5 5 6 5 4 7 7 6 5 3 1 3 3 3 3 4 6 5 3 3 3 4
57 55 53 50 46 42 45 56 44 42 36 32 28 23 31 28 22 16 10 4 9 6 11 4 2 4 9 5 6 4 6 6 2 5 3 6 5 3 1 4 6 4 7 5 3 2 3
55 56 54 53 48 46 42 51 51 45 37 34 24 26 29 35 26 22 10 9 5 5 4 3 4 4 4 5 5 5 8 8 8 7 7 5 5 2 2 2 4 4 3 4 7 3 3
55 54 54 53 54 46 41 45 53 44 38 36 31 29 34 35 29 26 7 16 9 5 2 2 5 5 9 6 6 9 8 6 7 10 6 7 0 1 2 2 1 4 7 4 3 3 3
54 52 52 54 58 50 45 43 53 47 39 33 32 15 16 34 32 16 15 13 19 21 4 2 2 4 5 7 8 6 10 3 8 5 6 5 4 3 0 5 7 2 2 5 5 4 4
46 50 50 57 59 53 48 43 53 54 42 36 30 7 22 40 17 15 19 10 20 21 13 6 2 4 5 6 6 7 10 10 15 14 9 6 6 5 8 1 2 3 6 6 5 4 1
48 47 46 53 58 57 51 45 48 53 46 44 17 12 31 45 13 16 12 21 10 17 11 6 5 5 2 2 3 7 7 6 16 8 9 8 1 1 8 4 2 3 4 4 5 3 6
50 49 49 48 61 62 54 48 48 53 57 51 11 8 17 40 36 18 22 16 23 13 7 5 2 3 1 4 4 4 7 2 14 11 7 12 4 9 10 7 5 4 6 5 6 4 4
53 51 50 50 63 64 57 50 50 57 61 53 17 8 14 13 24 17 22 15 21 17 19 16 3 6 3 2 2 4 2 3 3 6 5 7 7 5 6 6 5 6 5 8 7 6 6
54 53 52 51 63 63 57 48 51 66 57 44 14 8 16 4 27 22 16 24 25 23 10 10 8 8 7 5 5 1 1 4 6 5 5 0 4 4 2 3 2 4 6 7 5 4 4
52 51 51 50 69 65 57 53 58 61 62 37 28 21 10 17 19 19 28 20 21 17 21 12 18 11 3 16 23 22 16 10 4 7 8 7 7 4 4 2 3 6 7 8 6 5 7
52 49 49 43 68 67 60 60 70 65 68 37 41 17 8 5 14 21 21 19 22 23 9 27 20 3 9 16 1 4 7 7 9 6 3 7 7 3 3 3 1 7 1 4 9 6 5
47 47 48 46 69 65 62 62 62 64 60 42 39 24 5 5 10 13 20 23 19 23 18 16 19 20 18 5 2 1 4 3 3 6 4 2 6 3 5 4 5 4 5 7 8 8 7
40 45 42 62 70 62 64 61 63 62 55 52 32 40 11 3 9 17 18 20 18 15 7 19 27 31 9 3 2 5 6 5 4 3 3 6 7 4 3 4 8 8 5 7 5 4 8
41 43 46 70 67 60 62 58 59 60 56 50 47 34 13 3 3 20 14 18 24 17 4 8 23 11 15 2 2 3 5 4 6 10 6 3 3 5 2 3 7 8 3 10 6 8 20
34 48 67 64 53 54 54 53 51 53 56 54 54 38 14 6 20 7 17 22 24 32 9 8 10 12 3 6 4 4 4 6 4 4 7 7 7 4 3 3 7 11 5 9 7 3 28
54 61 61 53 50 51 51 49 49 52 53 47 37 40 17 11 7 13 10 16 25 30 31 23 9 10 14 4 1 4 3 1 3 3 1 3 7 6 9 7 5 15 5 16 9 15 27
Wind_Direction
267 265 263 262 261 262 261 258 261 266 268 272 277 276 280 288 298 306 310 308 310 311 318 323 325 328 329 302 241 290 339 44 151 152 153 181 180 158 250 224 251 219 257 270 279 161 114
268 266 266 264 263 261 262 263 262 259 261 264 270 274 282 283 289 298 307 308 308 309 315 320 321 323 318 271 210 196 97 99 136 146 175 198 323 303 272 245 182 223 264 288 114 144 145
266 265 266 266 266 263 260 263 262 263 260 259 262 268 275 283 289 292 303 309 304 306 311 316 315 318 298 260 208 204 189 159 134 177 198 254 312 308 311 294 305 269 275 112 79 162 146
268 266 265 265 261 264 266 265 263 260 259 260 256 260 267 277 285 292 300 307 302 302 305 307 306 311 272 237 212 205 205 219 197 204 229 280 318 299 255 307 327 351 36 37 174 171 106
269 268 265 262 264 261 259 262 264 265 263 258 257 257 263 271 279 287 301 306 301 300 296 294 293 298 267 237 215 215 228 230 227 250 265 274 309 272 329 51 359 2 173 17 107 215 113
255 262 268 264 260 261 260 258 257 258 260 265 264 254 258 264 275 286 300 309 303 294 285 280 263 289 251 215 179 224 223 229 229 251 267 226 203 36 19 68 224 289 21 117 211 216 96
256 252 254 265 262 258 261 257 259 252 252 254 260 258 255 260 276 286 300 321 308 282 267 236 218 238 283 237 257 229 218 204 180 146 206 45 72 226 225 193 161 329 284 260 284 246 126
267 255 250 250 259 260 257 258 257 256 248 244 245 253 249 254 274 280 294 303 289 301 305 274 259 256 256 264 286 217 200 168 160 179 178 35 237 236 186 183 189 211 195 277 214 345 97
267 263 256 248 248 254 257 253 254 254 247 245 235 240 243 246 266 274 280 294 280 284 278 285 246 240 240 231 224 224 184 191 152 149 186 157 240 107 172 173 180 219 95 72 249 38 53
269 263 262 254 247 245 249 252 249 247 244 245 235 231 232 227 268 268 269 263 283 227 297 263 232 234 189 178 230 213 193 175 166 196 153 230 264 235 254 185 189 24 148 129 279 110 191
265 262 258 255 250 244 241 247 246 239 245 239 231 228 216 207 220 255 158 318 113 111 298 217 188 189 173 167 155 200 193 189 160 165 116 246 267 230 204 232 160 238 76 74 10 98 96
260 258 258 254 249 243 240 236 244 241 234 239 233 220 210 208 228 217 187 348 165 52 250 313 162 164 143 201 189 143 174 190 195 140 242 238 282 188 227 197 191 103 61 44 53 51 46
255 255 254 251 248 243 238 236 236 239 231 227 222 214 200 211 225 217 233 284 191 193 309 247 203 165 175 169 195 148 150 163 157 118 192 302 242 270 249 97 38 75 66 338 344 13 216
255 252 252 248 247 242 239 235 236 231 229 224 218 214 203 203 212 222 227 230 223 215 220 310 273 123 183 148 222 153 120 155 191 107 127 165 292 203 262 157 179 182 155 154 234 195 275
253 250 247 246 242 238 237 234 229 226 226 218 214 214 215 202 192 210 190 224 210 206 230 258 314 143 212 222 151 139 176 185 186 166 156 154 257 280 234 96 128 206 118 161 106 16 47
249 247 245 241 239 235 233 233 224 225 217 214 209 211 220 197 185 201 210 223 206 230 3 337 209 208 182 201 155 175 173 198 198 184 152 206 221 216 291 86 138 216 152 83 17 161 234
245 242 241 238 235 233 225 227 221 221 205 201 198 206 230 189 184 201 214 214 223 258 322 303 302 294 217 172 178 176 195 251 186 163 118 132 126 255 4 205 192 153 132 64 116 133 175
241 239 238 235 229 229 222 220 221 215 196 190 190 202 185 176 186 207 220 173 222 239 263 259 295 241 234 196 166 176 189 199 182 146 154 195 146 193 206 204 298 166 175 142 134 211 137
245 240 236 233 226 224 220 215 217 212 193 188 198 180 178 178 192 208 205 213 235 222 221 211 232 211 340 271 200 179 201 232 163 143 158 180 190 56 329 337 15 202 182 132 106 73 188
240 235 232 231 223 220 216 211 211 207 192 190 189 177 172 195 209 193 196 199 208 231 232 183 291 277 284 304 251 231 199 190 186 185 184 139 143 172 215 215 174 194 185 175 143 129 183
237 233 229 224 217 217 212 207 204 193 192 185 204 214 185 187 208 203 196 189 198 216 206 203 257 220 165 230 278 186 172 117 98 149 121 134 195 182 208 204 193 213 196 168 183 198 168
230 227 224 220 212 212 205 201 197 190 182 184 194 207 191 208 200 199 199 208 196 205 171 205 202 206 208 212 209 24 193 190 180 204 144 290 184 174 150 134 167 229 230 189 211 176 240
218 219 217 216 203 203 198 192 194 183 179 186 197 207 209 207 183 191 209 197 202 196 220 183 205 221 232 226 250 262 250 261 245 175 167 149 132 129 218 15 57 330 222 211 220 206 173
214 211 212 209 195 198 191 185 182 186 185 185 196 184 229 194 191 204 192 198 198 200 188 214 229 132 222 260 142 84 83 95 97 40 98 139 114 98 166 41 250 241 205 210 218 232 221
203 201 202 201 191 194 187 190 189 181 189 196 195 191 242 212 197 200 198 195 206 209 222 232 222 246 245 317 74 137 326 23 39 31 19 87 120 106 144 192 294 278 199 176 178 259 195
194 197 200 186 188 187 183 189 195 195 197 202 190 199 229 333 210 187 190 183 193 215 213 223 231 248 275 137 140 180 202 179 197 107 55 68 66 119 135 158 217 228 231 176 109 268 179
182 192 184 180 185 182 183 189 194 198 194 204 199 194 219 303 315 191 180 189 185 194 197 184 208 229 215 154 155 168 234 210 161 159 168 64 25 146 121 209 285 245 219 144 130 238 174
183 177 174 177 180 175 183 186 189 194 196 197 201 213 230 208 262 284 192 175 184 201 185 161 168 215 76 184 160 196 200 218 117 170 173 156 148 177 91 72 280 182 118 169 214 201 179
161 163 169 167 165 175 178 179 185 187 189 192 199 206 213 272 258 280 224 193 203 203 191 193 194 156 178 165 165 103 215 99 136 209 93 198 178 179 180 207 218 191 212 218 227 183 180